Tracking 18987 objects as of 25-Feb-2018
HD Live streaming from Space Station
objects crossing your sky now

NOAA 16 DEB

Track NOAA 16 DEB now!
10-day predictions


NORAD ID: 42365
Int'l Code: 2000-055RH
Perigee: 787.5 km
Apogee: 867.4 km
Inclination: 98.9 °
Period: 101.3 minutes
Semi major axis: 7198 km
RCS: Unknown
Launch date: September 21, 2000
Source: United States (US)
Launch site: AIR FORCE WESTERN TEST RANGE (AFWTR)

Note: This is SATELLITE DEBRIS
aabbcc
Your satellite tracking list
Your tracking list is empty




NASA's NSSDC Master Catalog

Two Line Element Set (TLE):
1 42365U 00055RH  18055.02727536 +.00000629 +00000-0 +30369-3 0  9992
2 42365 098.8992 144.1975 0055442 309.0611 050.5640 14.21493228104953
Source of the keplerian elements: AFSPC